When you browse on this site, cookies collect data to enhance your experience and personalize the content and advertising you see.
Visit our Privacy Policy to learn more. By continuing to use the site, you agree to this use of cookies and data.
  • In Romania
  • List of Countries
  • For 7 days
  • Water Temperature
  • Satellite Maps
  • Weather Map
  • Weather Widgets
  • user-avatar
    Login

    Hourly Weather Djelfa

    Today, 16 January, Wednesday

    Time Temperature Precipitation Wind Pressure Humidity
    00:00 +4°C° 0 mm 2 mps 665 mmHg 57%
    01:00 +4°C° 0 mm 2 mps 664 mmHg 58%
    02:00 +3°C° 0 mm 2 mps 664 mmHg 59%
    03:00 +3°C° 0 mm 2 mps 664 mmHg 61%
    04:00 +3°C° 0 mm 2 mps 664 mmHg 62%
    05:00 +2°C° 0 mm 2 mps 664 mmHg 63%
    06:00 +2°C° 0 mm 2 mps 664 mmHg 65%
    07:00 +2°C° 0 mm 3 mps 664 mmHg 63%
    08:00 +3°C° 0 mm 4 mps 665 mmHg 62%
    09:00 +4°C° 0 mm 4 mps 665 mmHg 60%
    10:00 +5°C° 0 mm 5 mps 665 mmHg 56%
    11:00 +6°C° 0 mm 5 mps 665 mmHg 52%
    12:00 +7°C° 0 mm 5 mps 665 mmHg 49%
    13:00 +7°C° 0 mm 5 mps 665 mmHg 47%
    14:00 +7°C° 0 mm 4 mps 664 mmHg 46%
    15:00 +7°C° 0 mm 4 mps 664 mmHg 45%
    16:00 +6°C° 0 mm 4 mps 664 mmHg 49%
    17:00 +5°C° 0 mm 4 mps 663 mmHg 53%
    18:00 +4°C° 0 mm 3 mps 663 mmHg 57%
    19:00 +3°C° 0 mm 3 mps 663 mmHg 60%
    20:00 +3°C° 0 mm 3 mps 663 mmHg 63%
    21:00 +2°C° 0 mm 3 mps 664 mmHg 66%
    22:00 +3°C° 0 mm 2 mps 663 mmHg 67%
    23:00 +2°C° 0 mm 2 mps 663 mmHg 69%

    Tomorrow, 17 January, Thursday

    Time Temperature Precipitation Wind Pressure Humidity
    00:00 +2°C° 0 mm 2 mps 663 mmHg 70%
    01:00 +2°C° 0 mm 2 mps 663 mmHg 71%
    02:00 +1°C° 0 mm 2 mps 663 mmHg 72%
    03:00 +1°C° 0 mm 2 mps 662 mmHg 73%
    04:00 +1°C° 0 mm 2 mps 662 mmHg 73%
    05:00 +1°C° 0 mm 2 mps 662 mmHg 72%
    06:00 -1°C° 0 mm 2 mps 662 mmHg 71%
    07:00 +2°C° 0 mm 2 mps 663 mmHg 64%
    08:00 +3°C° 0 mm 2 mps 663 mmHg 57%
    09:00 +5°C° 0 mm 2 mps 664 mmHg 49%
    10:00 +5°C° 0 mm 3 mps 664 mmHg 45%
    11:00 +8°C° 0 mm 3 mps 664 mmHg 41%
    12:00 +8°C° 0 mm 4 mps 663 mmHg 37%
    13:00 +8°C° 0 mm 4 mps 663 mmHg 36%
    14:00 +8°C° 0 mm 4 mps 663 mmHg 36%
    15:00 +10°C° 0 mm 4 mps 662 mmHg 35%
    16:00 +8°C° 0 mm 3 mps 662 mmHg 40%
    17:00 +7°C° 0 mm 3 mps 662 mmHg 45%
    18:00 +6°C° 0 mm 2 mps 662 mmHg 49%
    19:00 +5°C° 0 mm 2 mps 662 mmHg 53%
    20:00 +5°C° 0 mm 1 mps 662 mmHg 56%
    21:00 +3°C° 0 mm 0 mps 662 mmHg 59%
    22:00 +3°C° 0 mm 0 mps 662 mmHg 60%
    23:00 +4°C° 0 mm 1 mps 662 mmHg 60%

    Day after tomorrow, 18 January, Friday

    Time Temperature Precipitation Wind Pressure Humidity
    00:00 +3°C° 0 mm 1 mps 662 mmHg 61%
    01:00 +3°C° 0 mm 1 mps 662 mmHg 64%
    02:00 +3°C° 0 mm 1 mps 662 mmHg 66%
    03:00 +3°C° 0 mm 1 mps 662 mmHg 69%
    04:00 +2°C° 0 mm 2 mps 662 mmHg 72%
    05:00 +1°C° 0 mm 2 mps 662 mmHg 75%
    06:00 +1°C° 0 mm 2 mps 662 mmHg 78%
    07:00 +3°C° 0 mm 2 mps 662 mmHg 72%
    08:00 +3°C° 0 mm 3 mps 663 mmHg 67%
    09:00 +4°C° 0 mm 3 mps 664 mmHg 62%
    10:00 +5°C° 0 mm 4 mps 664 mmHg 56%
    11:00 +7°C° 0 mm 5 mps 664 mmHg 50%
    12:00 +8°C° 0 mm 5 mps 664 mmHg 45%
    13:00 +8°C° 0 mm 5 mps 663 mmHg 44%
    14:00 +8°C° 0 mm 5 mps 663 mmHg 44%
    15:00 +8°C° 0 mm 6 mps 662 mmHg 44%
    16:00 +7°C° 0 mm 5 mps 662 mmHg 49%
    17:00 +6°C° 0 mm 4 mps 662 mmHg 54%
    18:00 +5°C° 0 mm 3 mps 662 mmHg 59%
    19:00 +4°C° 0 mm 3 mps 663 mmHg 63%
    20:00 +4°C° 0 mm 3 mps 663 mmHg 68%
    21:00 +3°C° 0 mm 3 mps 663 mmHg 72%
    22:00 +3°C° 0 mm 3 mps 663 mmHg 75%
    23:00 +2°C° 0 mm 3 mps 663 mmHg 79%

    19 January, Saturday

    Time Temperature Precipitation Wind Pressure Humidity
    00:00 +2°C° 0 mm 3 mps 663 mmHg 83%
    01:00 +2°C° 0 mm 3 mps 663 mmHg 84%
    02:00 0°C° 0 mm 4 mps 662 mmHg 85%
    03:00 0°C° 0 mm 4 mps 662 mmHg 86%
    04:00 0°C° 0 mm 4 mps 662 mmHg 89%
    05:00 0°C° 0 mm 4 mps 662 mmHg 91%
    06:00 0°C° 0 mm 4 mps 662 mmHg 93%
    07:00 +1°C° 0 mm 6 mps 663 mmHg 88%
    08:00 +2°C° 0 mm 7 mps 663 mmHg 83%
    09:00 +2°C° 0 mm 8 mps 664 mmHg 78%
    10:00 +4°C° 0 mm 8 mps 664 mmHg 72%
    11:00 +5°C° 0 mm 8 mps 664 mmHg 66%
    12:00 +6°C° 0 mm 8 mps 664 mmHg 59%
    13:00 +6°C° 0 mm 9 mps 663 mmHg 61%
    14:00 +6°C° 0 mm 9 mps 663 mmHg 62%
    15:00 +6°C° 0 mm 9 mps 662 mmHg 63%
    16:00 +5°C° 0 mm 8 mps 663 mmHg 67%
    17:00 +4°C° 0 mm 7 mps 663 mmHg 72%
    18:00 +3°C° 0 mm 6 mps 663 mmHg 77%
    19:00 +3°C° 0 mm 5 mps 663 mmHg 80%
    20:00 +2°C° 0 mm 5 mps 663 mmHg 83%
    21:00 +2°C° 0 mm 5 mps 663 mmHg 86%
    22:00 +2°C° 0 mm 5 mps 663 mmHg 87%
    23:00 +1°C° 0 mm 5 mps 663 mmHg 87%

    20 January, Sunday

    Time Temperature Precipitation Wind Pressure Humidity
    00:00 +1°C° 0 mm 5 mps 662 mmHg 88%
    01:00 +1°C° 0 mm 5 mps 662 mmHg 86%
    02:00 +1°C° 0 mm 5 mps 662 mmHg 84%
    03:00 +1°C° 0 mm 5 mps 661 mmHg 82%
    04:00 +1°C° 0 mm 5 mps 661 mmHg 83%
    05:00 +1°C° 0 mm 5 mps 661 mmHg 83%
    06:00 +1°C° 0 mm 4 mps 661 mmHg 84%
    07:00 +2°C° 0.1 mm 6 mps 661 mmHg 81%
    08:00 +4°C° 0.1 mm 7 mps 662 mmHg 78%
    09:00 +5°C° 0.1 mm 8 mps 662 mmHg 74%
    10:00 +5°C° 0.4 mm 9 mps 662 mmHg 72%
    11:00 +6°C° 0.4 mm 11 mps 661 mmHg 69%
    12:00 +5°C° 0.4 mm 12 mps 661 mmHg 67%
    13:00 +6°C° 0 mm 11 mps 661 mmHg 67%
    14:00 +7°C° 0 mm 11 mps 660 mmHg 67%
    15:00 +7°C° 0 mm 10 mps 660 mmHg 68%
    16:00 +6°C° 0.1 mm 10 mps 660 mmHg 73%
    17:00 +5°C° 0.1 mm 9 mps 660 mmHg 78%
    18:00 +5°C° 0.1 mm 9 mps 661 mmHg 83%
    19:00 +4°C° 0.1 mm 8 mps 661 mmHg 85%
    20:00 +4°C° 0.1 mm 8 mps 661 mmHg 86%
    21:00 +3°C° 0.1 mm 7 mps 662 mmHg 88%
    22:00 +3°C° 0 mm 7 mps 662 mmHg 90%
    23:00 +2°C° 0 mm 6 mps 662 mmHg 92%

    21 January, Monday

    Time Temperature Precipitation Wind Pressure Humidity
    00:00 +2°C° 0 mm 6 mps 662 mmHg 94%
    01:00 +1°C° 0 mm 6 mps 662 mmHg 94%
    02:00 +1°C° 0 mm 5 mps 662 mmHg 93%
    03:00 +1°C° 0 mm 5 mps 661 mmHg 93%
    04:00 0°C° 0 mm 5 mps 662 mmHg 94%
    05:00 0°C° 0 mm 4 mps 662 mmHg 94%
    06:00 0°C° 0 mm 4 mps 662 mmHg 95%
    07:00 0°C° 0 mm 4 mps 662 mmHg 89%
    08:00 +1°C° 0 mm 5 mps 663 mmHg 83%
    09:00 +2°C° 0 mm 5 mps 663 mmHg 76%
    10:00 +3°C° 0 mm 6 mps 663 mmHg 68%
    11:00 +4°C° 0 mm 6 mps 663 mmHg 60%
    12:00 +6°C° 0 mm 7 mps 663 mmHg 51%
    13:00 +6°C° 0 mm 7 mps 663 mmHg 49%
    14:00 +6°C° 0 mm 8 mps 663 mmHg 47%
    15:00 +6°C° 0 mm 8 mps 662 mmHg 44%
    16:00 +5°C° 0 mm 7 mps 662 mmHg 51%
    17:00 +4°C° 0 mm 7 mps 663 mmHg 57%
    18:00 +3°C° 0 mm 6 mps 663 mmHg 63%
    19:00 +2°C° 0 mm 6 mps 663 mmHg 67%
    20:00 +1°C° 0 mm 6 mps 663 mmHg 71%
    21:00 +1°C° 0 mm 6 mps 663 mmHg 75%
    22:00 -1°C° 0 mm 6 mps 663 mmHg 75%
    23:00 0°C° 0 mm 5 mps 663 mmHg 76%
    Show more